Simultaneous Nadir Overpasses (SNOs) Predictions

Prediction of SNOs between GOES-16 and NOAA-19 Satellite Orbit:

Table of predicted SNOs for the next 14.0 days since TLE Epoch: 5/19/2017
Index Date Time (GOES-16) GOES-16 Lat,Lon NOAA-19 Lat,Lon Distance(km) Time Diff (sec)
1 05/20/2017 09:21:10 -0.00, -89.51 0.40, -91.30 204.36 80
2 05/21/2017 09:07:04 -0.00, -89.51 -0.25, -88.52 113.70 80
3 05/22/2017 08:55:36 -0.00, -89.51 -0.85, -85.72 431.75 80
4 05/23/2017 21:28:43 0.01, -89.48 -0.93, -93.67 477.12 80
5 05/24/2017 21:17:15 0.01, -89.48 -0.31, -90.88 158.87 80
6 05/25/2017 21:08:28 0.02, -89.49 0.31, -88.08 159.38 80
7 05/26/2017 20:57:01 0.02, -89.49 0.99, -85.30 477.57 80
8 05/28/2017 09:30:02 -0.03, -89.52 0.82, -93.23 423.45 80
9 05/29/2017 09:18:36 -0.03, -89.52 0.16, -90.45 105.21 80
10 05/30/2017 09:04:29 -0.03, -89.52 -0.45, -87.65 213.30 80
11 06/01/2017 21:26:05 0.04, -89.51 -0.70, -92.80 375.08 80




NCC Satellite Simultaneous Nadir Overpasses (SNOs) Prediction Service
